User: anonymous
Location: Broad Creek
(39.7000°N, 76.2570°W)
Time: 17:24:33
(UTC-04:00)
Language:

ETS-7 - Orbit

View from above orbital plane
View from above orbital plane
View from above satellite
View from above satellite

Ground track
Ground track

The orbit data is extracted from the following two-line orbital elements,

1 25064U 97074B   14112.80494603  .00027750  00000-0  52976-3 0  1419
2 25064 034.9645 270.3190 0003696 262.4139 190.7936 15.47136591912585
Epoch (UTC): 22 April 2014 19:19:07
Eccentricity: 0.0003696
inclination: 34.9645°
perigee height: 422 km
apogee height: 427 km
right ascension of ascending node: 270.3190°
argument of perigee: 262.4139°
revolutions per day: 15.47136591
mean anomaly at epoch: 190.7936°
orbit number at epoch: 91258

The dashed part of the orbit path shows where the satellite is in the earth's shadow,  

DLR